Regional Weather Roundup
Issued by NWS

Home | Current Version | Previous Version | Graphics & Text | Print | Product List | Glossary On
Versions: 1 2 3 4 5 6 7 8 9 10 11 12 13 14 15 16 17 18 19 20 21 22 23 24 25 26 27 28 29 30 31 32 33 34 35 36 37 38 39 40 41 42 43 44 45 46 47 48 49 50
000
ASUS43 KMPX 060801
RWRMN
WEATHER ROUNDUP FOR MINNESOTA
NATIONAL WEATHER SERVICE TWIN CITIES/CHANHASSEN MN
200 AM CST TUE DEC 06 2016


NOTE: "FAIR" INDICATES FEW OR NO CLOUDS BELOW 12,000 FEET WITH NO
SIGNIFICANT WEATHER AND/OR OBSTRUCTIONS TO VISIBILITY. N/A MEANS
CURRENT SKY AND/OR WEATHER CONDITIONS ARE NOT AVAILABLE.

MNZ060>063-068>070-060900-
   Twin Cities Metro

CITY           SKY/WX    TMP DP  RH WIND       PRES   REMARKS
TWIN CITIES    CLOUDY    33  25  72 W16G25    29.71R WCI  23
ST PAUL        CLOUDY    34  28  79 SW15G24   29.73R WCI  24
CRYSTAL        CLOUDY    33  24  69 SW12      29.70R WCI  24
BLAINE         CLOUDY    36  28  75 SW15G21   29.70R
LAKEVILLE      CLOUDY    30  27  86 W13       29.72R WCI  20
EDEN PRAIRIE   CLOUDY    33  25  72 SW13      29.71R WCI  24
SOUTH ST PAUL  CLOUDY    35  27  74 W15G28    29.72R WCI  25
LAKE ELMO      CLOUDY    36  30  80 SW10G18   29.71R
$$
MNZ001>005-007-008-013>017-022>024-027-028-060900-
   Northwest Minnesota

CITY           SKY/WX    TMP DP  RH WIND       PRES   REMARKS
BEMIDJI        CLOUDY    31  28  90 S20G26    29.40R WCI  18
HALLOCK        LGT SNOW  30  30 100 N18       29.37F WCI  18
ROSEAU         LGT SNOW  32  27  80 NE16G22   29.36F VSB 1   WCI  21
WARROAD        LGT SNOW  32  28  86 E20G26    29.38F VSB 3/4 WCI  20
THIEF RVR FALL FLURRIES  32  31  96 S12       29.31F WCI  23
CROOKSTON      LGT SNOW  32  32 100 S7        29.31F WCI  26
FOSSTON        CLOUDY    27  27 100 S25G32    29.37R WCI  11
DETROIT LAKES  CLOUDY    25  21  86 SW20G28   29.48R WCI  11
MOORHEAD       CLOUDY    25  19  80 SW26      29.47S WCI   9
PARK RAPIDS    CLOUDY    26  20  77 SW21G32   29.48R WCI  12
$$
MNZ006-009>011-018-025>026-060900-
   North Central Minnesota

CITY           SKY/WX    TMP DP  RH WIND       PRES   REMARKS
BAUDETTE       LGT SNOW  32  31  96 E18G25    29.37F FOG     WCI  20
FLAG ISLAND    LGT SNOW  30  28  93 NE14G20   29.41F WCI  20
INTL FALLS     CLOUDY    33  31  92 E14       29.45F FOG     WCI  23
WASKISH        DRIZZLE   34  34 100 SE7       29.37F WCI  28
BIG FORK       CLOUDY    36  30  80 S12G21    29.44S
LONGVILLE      CLOUDY    30  27  86 SW14G22   29.49R WCI  20
GRAND RAPIDS   CLOUDY    33  28  81 S16G24    29.50S WCI  23
CRANE LAKE     MIX PCPN  32  30  93 SE6       29.54F WCI  26
ORR            CLOUDY    34  30  86 SE7       29.47F WCI  28
COOK           CLOUDY    34  32  93 SE8       29.51S WCI  27
$$
MNZ012-019>021-037-060900-
   Northeast Minnesota

CITY           SKY/WX    TMP DP  RH WIND       PRES   REMARKS
DULUTH         CLOUDY    35  33  92 S16G24    29.56S WCI  25
ELY            CLOUDY    34  32  93 SE14      29.53F WCI  24
HIBBING        CLOUDY    33  32  96 S12G20    29.50F WCI  24
EVELETH        CLOUDY    35  33  92 S12       29.53S WCI  27
DULUTH HARBOR  CLOUDY    39  36  87 S14       29.61R
TWO HARBORS    CLOUDY    37  34  87 S10       29.59S
SILVER BAY     CLOUDY    37  36  93 S13       29.60F
GRAND MARAIS     N/A     42  36  79 S20       29.68F
G MARAIS ARPRT LGT RAIN  34  30  86 SE7G18    29.63F WCI  28
$$
MNZ029>031-032-039>041-046>048-054>057-064-060900-
   West Central Minnesota

CITY           SKY/WX    TMP DP  RH WIND       PRES   REMARKS
FERGUS FALLS   CLOUDY    19  16  86 SW25G33   29.62R WCI   2
WHEATON        PTCLDY    19  14  79 W21G31    29.66R WCI   3
MORRIS         MOCLDY    21  16  79 W17G24    29.66R WCI   7
ALEXANDRIA     CLOUDY    21  16  81 SW20G35   29.61R WCI   6
ELBOW LAKE     CLOUDY    19  14  80 SW26G33   29.63R WCI   1
WADENA         CLOUDY    21  19  93 SW20G32   29.54R WCI   6
GLENWOOD       CLOUDY    21  16  79 W30G41    29.62S WCI   3
APPLETON       PTCLDY    21  16  79 W25       29.69S WCI   4
BENSON           N/A     21  14  73 W22G28    29.68S WCI   5
ORTONVILLE     CLOUDY    19  12  73 W20G29    29.69S WCI   4
MADISON        CLOUDY    23  16  74 W24G35    29.71F WCI   7
WILLMAR        CLOUDY    25  19  80 W26G36    29.70R WCI   9
$$
MNZ033>034-036-042>043-049>051-058-059-060900-
   Central Minnesota

CITY           SKY/WX    TMP DP  RH WIND       PRES   REMARKS
ST CLOUD       CLOUDY    29  24  82 W16G26    29.65R WCI  17
PAYNESVILLE    CLOUDY    26  21  84 SW26G32   29.67R WCI  10
AITKIN         CLOUDY    36  25  64 SW12G22   29.53R
PINE RIVER     CLOUDY    28  25  86 SW17G24   29.56R WCI  16
BRAINERD       CLOUDY    30  24  78 SW14G24   29.55R WCI  19
STAPLES        CLOUDY    23  19  86 SW17G24   29.56R WCI   9
LONG PRAIRIE   CLOUDY    23  19  86 S21G31    29.61R WCI   8
LITTLE FALLS   CLOUDY    28  21  74 SW17G24   29.61R WCI  16
LITCHFIELD     CLOUDY    28  21  74 W8G18     29.70R WCI  20
BUFFALO        CLOUDY    30  23  74 SW13G21   29.71R WCI  20
MAPLE LAKE     CLOUDY    31  26  81 SW8G18    29.69R WCI  23
$$
MNZ037-044-045-052-053-060900-
   East Central Minnesota

CITY           SKY/WX    TMP DP  RH WIND       PRES   REMARKS
PRINCETON      CLOUDY    34  27  75 SW12G20   29.65R WCI  25
MORA           CLOUDY    34  28  80 SW13G22   29.64R WCI  25
CAMBRIDGE      CLOUDY    36  27  69 S10G18    29.63R
RUSH CITY      CLOUDY    34  28  80 SW9G16    29.65R WCI  26
MOOSE LAKE     CLOUDY    34  30  86 SW17G25   29.56S WCI  23
HINCKLEY       CLOUDY    34  30  86 SW10G20   29.63R WCI  26
CLOQUET        CLOUDY    36  32  87 S10       29.56R
MCGREGOR       CLOUDY    34  30  86 S14       29.53F WCI  24
$$
MNZ071>073-080-081-089-090-097-098-060900-
   Southwest Minnesota

CITY           SKY/WX    TMP DP  RH WIND       PRES   REMARKS
MONTEVIDEO     CLOUDY    25  16  68 W17G31    29.72S WCI  11
GRANITE FALLS  CLOUDY    24  18  76 SW28G33   29.75R WCI   8
CANBY          PTCLDY    21  14  73 W30G36    29.75R WCI   3
MARSHALL       CLOUDY    21  15  78 W28G35    29.75R WCI   3
REDWOOD FALLS  CLOUDY    26  17  68 W16G26    29.74R WCI  14
OLIVIA         CLOUDY    27  21  80 W22G29    29.72R WCI  12
PIPESTONE      MOCLDY    18  14  86 W26G35    29.76R WCI  -1
WINDOM         CLOUDY    25  19  80 W23       29.75S WCI  10
WORTHINGTON    CLOUDY    22  17  81 W23G31    29.77R WCI   6
JACKSON        CLOUDY    27  19  74 W17G29    29.79R WCI  14
TRACY          CLOUDY    23  17  78 W17G26    29.76R WCI   9
SLAYTON        CLOUDY    21  16  81 W18G28    29.75S WCI   6
$$
MNZ065>067-074>077-082>085-091>093-060900-
   South Central Minnesota

CITY           SKY/WX    TMP DP  RH WIND       PRES   REMARKS
MANKATO        MIX PCPN  31  26  82 W12       29.77R WCI  22
NEW ULM        MOCLDY    28  21  74 W20G25    29.75R WCI  15
ST JAMES       CLOUDY    28  23  80 W10       29.77R WCI  19
FAIRMONT       CLOUDY    30  24  78 W18G25    29.77R WCI  18
GLENCOE        CLOUDY    31  26  84 SW10G21   29.72R WCI  22
FARIBAULT      CLOUDY    34  27  75 SW13G18   29.75R WCI  25
OWATONNA       CLOUDY    34  27  75 W18       29.76R WCI  23
WASECA         CLOUDY    32  28  86 W14       29.77R WCI  22
ALBERT LEA     CLOUDY    36  32  87 W9G17     29.76R
$$
MNZ078>079-086>088-094>096-060900-
   Southeast Minnesota

CITY           SKY/WX    TMP DP  RH WIND       PRES   REMARKS
ROCHESTER      LGT SNOW  33  32  96 S17       29.74R FOG     WCI  22
RED WING       LGT RAIN  36  34  93 S9        29.71F
STANTON        CLOUDY    35  29  79 W10       29.72R WCI  27
DODGE CENTER   LGT SNOW  32  32 100 SW10      29.73R WCI  24
WINONA         LGT SNOW  34  32  93 S5        29.77S WCI  30
AUSTIN         LGT SNOW  34  30  86 SW7       29.76R WCI  28
PRESTON        LGT SNOW  31  30  95 S15       29.75S WCI  20
$$
ABBREVIATIONS USED IN REMARKS
   TC - TEMPERATURES IN CELSIUS
  WCI - WIND CHILL INDEX
   HX - HEAT INDEX
  VSB - VISIBILITY
$$




USA.gov is the U.S. government's official web portal to all federal, state and local government web resources and services.